SCP
-0 0 0 -0 -0 -0 -0 -0 -0 -0 -0 -0 -0 -0 -0 -0 -0 -0 -0 -0 -0 -0 -0 -0 -0 -0 -0 -0 -0 -0 -0 -0 -0 -0 -0 -0 -0 -0 -0 -0 0 0 -0
-0 -0 -0 -0 -0 -0 -0 -0 -0 -0 -0 -0 -0 -0 -0 -0 -0 -0 -0 -0 -0 -0 -0 -0 -0 -0 -0 -0 -0 -0 -0 -0 0 0 0 -0 -0 -0 -0 -0 -0 0 -0
-0 -0 -0 -0 -0 -0 -0 -0 -0 -0 -0 -0 -0 -0 -0 -0 -0 -0 -0 -0 -0 -0 -0 -0 -0 -0 -0 -0 -0 -0 -0 -0 -0 -0 -0 -0 0 -0 -0 -0 -0 -0 -0
-0 -0 -0 -0 -0 -0 -0 -0 -0 -0 -0 -0 -0 -0 -0 -0 -0 -0 -0 -0 -0 -0 -0 -0 -0 -0 -0 -0 -0 -0 -0 -0 -0 -0 0 0 0 -0 -0 -0 -0 -0 0
-0 -0 -0 -0 -0 -0 -0 -0 -0 -0 -0 -0 -0 -0 -0 -0 -0 -0 -0 -0 -0 -0 -0 -0 -0 -0 -0 -0 -0 -0 -0 -0 -0 -0 0 0 0 -0 -0 -0 -0 -0 -0
-0 -0 -0 -0 -0 -0 -0 -0 -0 -0 -0 -0 -0 -0 -0 -0 -0 -0 -0 -0 -0 -0 -0 -0 -0 -0 -0 -0 -0 -0 -0 -0 0 0 0 0 0 0 0 -0 -0 0 0
-0 -0 -0 -0 -0 -0 -0 -0 -0 -0 -0 -0 -0 -0 -0 -0 -0 -0 -0 -0 -0 -0 -0 -0 -0 -0 -0 -0 -0 -0 -0 -0 0 0 0 0 0 0 0 0 0 0 0
-0 -0 -0 -0 -0 -0 -0 -0 -0 -0 -0 -0 -0 -0 -0 -0 -0 -0 -0 -0 -0 -0 -0 -0 -0 -0 -0 -0 -0 -0 -0 0 0 0 0 0 0 0 0 0 0 0 0
-0 -0 -0 -0 -0 -0 0 -0 -0 -0 -0 -0 -0 -0 -0 -0 -0 -0 -0 -0 0 -0 -0 -0 -0 -0 -0 -0 -0 0 0 0 0 0 0 0 0 0 0 0 0 0 0
-0 -0 0 0 0 0 0 0 0 0 -0 -0 -0 -0 -0 -0 -0 -0 -0 0 0 0 -0 -0 0 0 0 0 0 0 0 0 0 0 0 0 0 0 0 0 0 0 0
0 0 0 0 0 0 0 0 0 0 0 0 -0 -0 -0 0 -0 0 0 -0 -0 0 -0 0 0 0 0 0 0 0 0 0 0 0 0 0 0 0 0 0 0 0 0
0 0 0 0 0 0 0 0 0 0 0 0 0 0 0 0 0 0 0 0 0 0 0 0 0 0 0 0 0 0 0 0 0 0 0 0 0 0 0 0 0 0 0
0 0 0 0 0 0 0 0 0 0 0 0 0 0 0 0 0 0 0 0 0 0 0 0 0 0 0 0 0 0 0 0 0 0 0 0 0 0 0 0 0 0 0
0 0 0 0 0 0 0 0 0 0 0 0 0 0 0 0 0 0 0 0 0 0 0 0 0 0 0 0 0 0 0 0 0 0 0 0 0 0 0 0 0 0 0
0 0 0 0 0 0 0 0 0 0 0 0 0 0 0 0 0 0 0 0 0 0 0 0 0 0 0 0 0 0 0 0 0 0 0 0 0 0 0 0 0 0 0
0 0 0 0 0 0 0 0 0 0 0 0 0 0 0 0 0 0 0 0 0 0 0 0 0 0 0 0 0 0 0 0 0 0 0 0 0 0 0 0 0 0 0
0 0 0 0 0 0 0 0 0 0 0 0 0 0 0 0 0 0 0 0 0 0 0 0 0 0 0 0 0 0 0 0 0 0 0 0 0 0 0 0 0 0 0
0 0 0 0 0 0 0 0 0 0 0 0 0 0 0 0 0 0 0 0 0 0 0 0 0 0 0 0 0 0 0 0 0 0 0 0 0 0 0 0 0 0 0
0 0 0 0 0 0 0 0 0 0 0 0 0 0 0 0 0 0 0 0 0 0 0 0 0 0 0 0 0 0 0 0 0 0 0 0 0 0 0 0 0 0 0
0 0 0 0 0 0 0 0 0 0 0 0 0 0 0 0 0 0 0 0 0 0 0 0 0 0 0 0 0 0 0 0 0 0 0 0 0 0 0 0 0 0 0
0 0 0 0 0 0 0 0 0 0 0 0 0 0 0 0 0 0 0 0 0 0 0 0 0 0 0 0 0 0 0 0 0 0 0 0 0 0 0 0 0 0 0
0 0 0 0 0 0 0 0 0 0 0 0 0 0 0 0 0 0 0 0 0 0 0 0 0 0 0 0 0 0 0 0 0 0 0 0 0 0 0 0 0 0 0
0 0 0 0 0 0 0 0 0 0 0 0 0 0 0 0 0 0 0 0 0 0 0 0 0 0 0 0 0 0 0 0 0 0 0 0 0 0 0 0 0 0 0
0 0 0 0 0 0 0 0 0 0 0 0 0 0 0 0 0 0 0 0 0 0 0 0 0 0 0 0 0 0 0 0 0 0 0 0 0 0 0 0 0 0 0
0 0 0 0 0 0 0 0 0 0 0 0 0 0 0 0 0 0 0 0 0 0 0 0 0 0 0 0 0 0 0 0 0 0 0 0 0 0 0 0 0 0 0
0 0 0 0 0 0 0 0 0 0 0 0 0 0 0 0 0 0 0 0 0 0 0 0 0 0 0 0 0 0 0 0 0 0 0 0 0 0 0 0 0 0 0
Wind_Speed_500mb
13 25 25 25 25 25 23 23 23 22 22 22 22 24 27 29 29 32 33 33 29 27 25 24 21 19 20 21 23 25 26 27 25 26 29 18 19 22 24 28 29 27 24
15 24 27 26 26 25 23 21 19 19 18 20 19 20 22 24 25 28 29 28 28 25 24 23 23 23 22 22 23 26 30 33 30 26 27 23 13 14 15 17 20 23 22
15 25 26 25 25 25 22 19 17 17 16 15 17 15 18 19 20 24 28 28 24 23 20 21 21 20 19 20 22 26 30 30 25 26 23 20 20 14 11 10 9 10 13
19 19 26 23 22 21 19 17 15 15 14 14 14 12 15 16 19 23 27 30 28 22 19 18 18 17 17 18 19 21 24 23 21 22 18 19 15 15 13 11 9 5 4
16 19 25 23 22 16 16 14 13 12 10 11 11 10 14 15 18 22 26 29 32 26 21 19 18 16 15 14 15 17 19 17 16 14 2 6 16 17 14 14 12 9 4
18 14 18 22 23 19 14 12 12 8 8 9 9 11 13 11 16 21 25 28 30 30 25 22 20 18 16 13 12 13 11 9 4 9 5 10 11 17 17 16 15 13 10
26 24 19 19 26 24 20 13 13 9 6 7 8 12 12 10 15 19 24 27 27 27 26 23 22 21 18 15 11 9 5 2 2 2 8 13 15 17 19 18 17 15 12
27 22 22 25 25 23 19 16 16 15 5 2 7 11 9 10 13 17 22 27 27 23 22 23 23 21 19 17 13 9 3 5 9 10 12 14 17 17 17 17 16 15 14
34 30 22 28 25 21 20 20 18 16 9 5 5 4 4 3 6 12 20 27 29 20 19 21 23 23 20 17 15 14 10 8 11 14 15 16 17 18 18 18 18 18 16
32 31 27 31 34 32 27 25 23 19 17 11 5 5 3 1 5 10 16 24 32 21 17 23 23 23 20 18 16 13 11 12 13 13 14 16 17 18 20 20 19 18 18
26 27 28 29 31 37 30 26 26 22 18 15 11 9 6 4 1 7 15 25 27 26 26 29 29 24 24 21 21 20 19 17 17 15 16 17 18 18 19 19 20 20 19
26 28 30 30 27 27 38 27 28 30 25 20 17 11 12 12 6 10 12 13 14 18 21 26 27 28 29 30 28 27 27 27 26 24 23 22 22 22 23 23 22 23 22
24 24 26 27 26 24 31 38 28 26 28 31 24 22 19 15 17 11 3 2 2 4 12 17 18 27 28 28 31 31 32 32 32 32 30 27 26 25 25 25 25 27 28
26 25 24 25 28 30 29 27 37 36 32 26 23 22 25 20 24 12 8 3 3 7 9 14 15 19 24 26 25 28 30 31 30 26 24 24 23 23 23 23 23 22 23
18 17 18 21 23 27 32 34 34 37 36 31 25 25 26 23 21 12 7 6 3 6 8 10 9 13 16 15 16 18 20 21 22 21 21 20 20 21 21 22 23 23 23
18 18 21 21 24 30 38 39 36 32 27 24 27 24 25 23 17 13 9 7 13 8 6 5 13 8 14 13 15 13 18 20 19 19 21 21 21 21 22 23 24 24 24
25 26 27 26 27 32 40 41 38 33 31 25 26 23 24 21 16 12 9 12 12 9 10 8 3 4 8 6 10 15 17 17 17 15 17 20 24 24 25 25 27 27 27
27 27 28 29 31 38 39 44 43 40 35 30 23 21 23 19 14 13 15 12 10 11 8 6 5 5 4 7 9 13 13 12 13 15 19 23 22 23 25 28 30 28 27
26 25 26 28 33 39 45 47 47 42 37 33 26 22 23 23 21 18 14 14 11 7 6 6 5 4 5 9 10 9 7 12 11 12 16 17 21 26 31 34 36 36 35
27 25 21 33 40 44 45 46 44 42 39 35 30 29 28 23 21 18 18 15 11 7 7 4 5 7 11 17 14 16 12 19 14 11 14 21 25 28 33 38 43 40 38
26 25 30 37 44 46 48 49 50 46 43 37 36 31 26 22 23 20 19 18 15 11 10 9 9 11 13 17 13 12 12 9 11 15 16 19 27 35 40 42 44 44 47
30 35 41 46 48 54 51 48 50 47 44 42 38 33 34 29 26 22 19 16 13 11 11 11 13 16 17 18 19 8 4 5 3 15 14 24 34 41 46 48 49 50 50
42 46 51 57 56 58 57 55 50 51 49 44 45 44 39 32 26 19 16 12 10 9 10 14 17 19 24 24 24 18 7 7 32 9 22 34 43 47 49 51 52 54 55
52 54 57 53 52 52 51 50 51 51 53 55 50 44 39 29 24 19 13 10 9 12 14 18 23 27 25 27 26 26 22 21 15 22 36 46 48 50 52 52 52 52 53
59 61 58 57 56 54 53 54 54 59 61 57 50 43 36 29 21 16 12 11 11 14 19 23 25 28 30 29 26 22 18 17 19 27 35 53 51 51 53 54 58 57 56
65 65 63 59 58 58 59 59 61 63 61 57 49 39 32 26 20 16 12 9 11 15 17 21 24 25 27 27 27 26 25 24 25 30 42 52 56 56 49 49 53 55 58
Wind_Direction_500mb
186 168 154 145 137 128 122 115 104 95 89 86 82 74 61 57 54 53 51 51 55 66 71 74 74 76 76 79 78 73 69 67 62 60 52 53 62 69 66 64 65 67 60
192 171 157 149 146 141 134 126 112 102 94 95 86 78 60 56 52 52 47 47 49 57 65 70 73 76 77 79 78 77 82 74 54 55 46 43 56 59 56 58 61 66 65
170 169 165 153 151 148 144 137 125 116 109 100 103 81 57 55 54 44 36 35 41 52 65 67 66 69 72 77 81 87 95 87 70 61 39 58 56 58 58 49 51 55 57
164 173 170 157 149 149 148 145 135 127 113 111 105 81 62 59 52 41 38 38 38 44 59 63 60 61 68 73 79 86 99 98 85 68 54 39 34 33 43 47 37 35 34
171 164 172 165 152 142 157 154 144 133 118 114 105 83 67 65 49 40 38 38 40 46 59 59 54 50 52 62 78 93 109 111 97 72 162 337 12 3 23 21 23 22 28
157 130 163 164 152 161 164 158 139 113 126 119 104 95 100 69 45 37 33 35 37 43 48 47 44 40 43 53 72 94 129 131 118 103 61 39 8 4 24 24 24 21 13
141 160 174 179 172 172 172 160 142 115 85 105 103 112 106 69 52 40 34 31 32 36 41 42 42 40 42 46 61 97 149 145 293 305 339 0 7 11 18 16 13 13 10
149 169 193 194 190 183 177 169 164 145 222 108 115 127 106 71 42 31 30 24 18 20 30 38 43 45 47 52 63 76 58 20 357 18 24 16 12 9 12 9 7 3 359
176 169 174 190 198 197 196 186 180 160 209 208 159 144 116 75 49 33 37 28 17 17 31 35 38 42 44 46 49 52 43 17 14 16 11 12 7 3 5 4 359 355 354
187 195 184 182 199 208 204 193 189 186 201 223 214 188 189 111 107 68 41 35 21 19 49 42 35 33 35 37 40 39 26 13 14 11 6 5 1 358 357 357 354 355 354
187 191 194 192 190 204 202 201 195 206 216 228 233 238 245 224 47 44 61 38 39 36 35 40 36 37 38 34 30 20 11 2 2 2 360 359 355 353 351 350 350 347 346
195 198 201 210 219 212 204 191 193 210 212 212 217 229 223 190 183 161 91 55 37 18 23 15 24 36 41 40 38 33 25 12 1 358 355 353 351 349 347 346 343 340 339
217 209 211 218 222 215 211 203 196 206 217 221 219 208 201 210 194 161 166 276 87 20 346 354 18 33 36 34 35 36 36 31 20 9 358 351 348 347 347 345 342 338 333
221 220 220 223 225 220 215 196 200 204 207 206 205 203 190 190 184 192 211 206 297 299 342 349 6 23 31 20 27 25 27 25 25 20 11 359 349 343 339 336 336 337 333
219 219 216 213 207 205 201 193 192 202 209 208 192 182 184 191 189 195 180 217 252 319 334 341 359 357 7 3 7 12 10 10 10 11 11 2 351 345 340 334 328 323 318
229 232 235 227 216 205 194 189 187 192 203 200 185 183 187 193 204 208 196 202 273 262 294 345 334 323 348 335 332 342 351 353 352 351 354 356 352 346 341 334 328 320 312
240 241 238 227 215 207 195 183 186 185 189 185 185 189 194 195 195 197 200 223 210 225 270 275 277 253 283 254 314 331 342 345 348 338 334 339 342 339 335 329 327 322 313
240 237 233 217 204 192 185 182 185 187 184 182 188 190 179 180 188 194 202 206 193 199 195 226 291 334 314 294 330 341 343 337 338 342 341 343 345 350 353 351 349 344 336
247 245 228 201 190 181 182 182 186 186 185 180 181 184 175 172 179 184 177 170 159 174 205 233 305 348 23 25 35 33 19 33 30 3 350 355 357 356 356 352 348 343 336
230 225 208 175 168 172 176 179 181 185 184 180 182 185 172 169 166 171 166 164 158 156 167 148 79 40 30 41 42 55 58 57 54 23 4 1 2 1 1 358 354 355 354
210 200 170 166 168 174 177 180 179 178 175 179 179 173 170 166 148 138 130 127 125 127 104 82 50 42 41 48 57 69 72 48 17 2 348 349 346 347 343 344 345 346 342
201 178 169 168 169 170 175 180 180 179 174 177 171 163 151 144 138 140 135 127 109 85 77 54 29 16 18 22 30 62 134 214 21 310 315 328 337 337 336 341 340 339 337
185 179 173 171 174 175 177 178 177 176 170 166 160 154 146 144 136 131 125 114 99 75 53 43 35 26 31 27 26 38 26 359 331 255 288 322 329 335 337 339 341 340 336
183 183 179 179 180 180 179 182 186 181 173 160 157 151 144 142 142 139 131 110 84 60 50 38 33 28 24 28 26 26 11 356 346 316 316 328 335 339 342 345 342 343 338
190 187 187 185 184 183 182 186 185 175 166 159 155 153 150 146 144 138 119 93 72 51 38 32 24 17 12 9 10 18 10 358 343 331 325 333 331 338 342 343 344 344 341
192 191 189 188 188 186 185 181 178 176 169 163 158 157 152 152 145 129 110 83 55 41 28 18 15 11 13 12 8 3 358 354 347 339 331 330 332 336 338 341 340 339 338
Wind_Speed_850mb
13 25 25 25 25 25 23 23 23 22 22 22 22 24 27 29 29 32 33 33 29 27 25 24 21 19 20 21 23 25 26 27 25 26 29 18 19 22 24 28 29 27 24
15 24 27 26 26 25 23 21 19 19 18 20 19 20 22 24 25 28 29 28 28 25 24 23 23 23 22 22 23 26 30 33 30 26 27 23 13 14 15 17 20 23 22
15 25 26 25 25 25 22 19 17 17 16 15 17 15 18 19 20 24 28 28 24 23 20 21 21 20 19 20 22 26 30 30 25 26 23 20 20 14 11 10 9 10 13
19 19 26 23 22 21 19 17 15 15 14 14 14 12 15 16 19 23 27 30 28 22 19 18 18 17 17 18 19 21 24 23 21 22 18 19 15 15 13 11 9 5 4
16 19 25 23 22 16 16 14 13 12 10 11 11 10 14 15 18 22 26 29 32 26 21 19 18 16 15 14 15 17 19 17 16 14 2 6 16 17 14 14 12 9 4
18 14 18 22 23 19 14 12 12 8 8 9 9 11 13 11 16 21 25 28 30 30 25 22 20 18 16 13 12 13 11 9 4 9 5 10 11 17 17 16 15 13 10
26 24 19 19 26 24 20 13 13 9 6 7 8 12 12 10 15 19 24 27 27 27 26 23 22 21 18 15 11 9 5 2 2 2 8 13 15 17 19 18 17 15 12
27 22 22 25 25 23 19 16 16 15 5 2 7 11 9 10 13 17 22 27 27 23 22 23 23 21 19 17 13 9 3 5 9 10 12 14 17 17 17 17 16 15 14
34 30 22 28 25 21 20 20 18 16 9 5 5 4 4 3 6 12 20 27 29 20 19 21 23 23 20 17 15 14 10 8 11 14 15 16 17 18 18 18 18 18 16
32 31 27 31 34 32 27 25 23 19 17 11 5 5 3 1 5 10 16 24 32 21 17 23 23 23 20 18 16 13 11 12 13 13 14 16 17 18 20 20 19 18 18
26 27 28 29 31 37 30 26 26 22 18 15 11 9 6 4 1 7 15 25 27 26 26 29 29 24 24 21 21 20 19 17 17 15 16 17 18 18 19 19 20 20 19
26 28 30 30 27 27 38 27 28 30 25 20 17 11 12 12 6 10 12 13 14 18 21 26 27 28 29 30 28 27 27 27 26 24 23 22 22 22 23 23 22 23 22
24 24 26 27 26 24 31 38 28 26 28 31 24 22 19 15 17 11 3 2 2 4 12 17 18 27 28 28 31 31 32 32 32 32 30 27 26 25 25 25 25 27 28
26 25 24 25 28 30 29 27 37 36 32 26 23 22 25 20 24 12 8 3 3 7 9 14 15 19 24 26 25 28 30 31 30 26 24 24 23 23 23 23 23 22 23
18 17 18 21 23 27 32 34 34 37 36 31 25 25 26 23 21 12 7 6 3 6 8 10 9 13 16 15 16 18 20 21 22 21 21 20 20 21 21 22 23 23 23
18 18 21 21 24 30 38 39 36 32 27 24 27 24 25 23 17 13 9 7 13 8 6 5 13 8 14 13 15 13 18 20 19 19 21 21 21 21 22 23 24 24 24
25 26 27 26 27 32 40 41 38 33 31 25 26 23 24 21 16 12 9 12 12 9 10 8 3 4 8 6 10 15 17 17 17 15 17 20 24 24 25 25 27 27 27
27 27 28 29 31 38 39 44 43 40 35 30 23 21 23 19 14 13 15 12 10 11 8 6 5 5 4 7 9 13 13 12 13 15 19 23 22 23 25 28 30 28 27
26 25 26 28 33 39 45 47 47 42 37 33 26 22 23 23 21 18 14 14 11 7 6 6 5 4 5 9 10 9 7 12 11 12 16 17 21 26 31 34 36 36 35
27 25 21 33 40 44 45 46 44 42 39 35 30 29 28 23 21 18 18 15 11 7 7 4 5 7 11 17 14 16 12 19 14 11 14 21 25 28 33 38 43 40 38
26 25 30 37 44 46 48 49 50 46 43 37 36 31 26 22 23 20 19 18 15 11 10 9 9 11 13 17 13 12 12 9 11 15 16 19 27 35 40 42 44 44 47
30 35 41 46 48 54 51 48 50 47 44 42 38 33 34 29 26 22 19 16 13 11 11 11 13 16 17 18 19 8 4 5 3 15 14 24 34 41 46 48 49 50 50
42 46 51 57 56 58 57 55 50 51 49 44 45 44 39 32 26 19 16 12 10 9 10 14 17 19 24 24 24 18 7 7 32 9 22 34 43 47 49 51 52 54 55
52 54 57 53 52 52 51 50 51 51 53 55 50 44 39 29 24 19 13 10 9 12 14 18 23 27 25 27 26 26 22 21 15 22 36 46 48 50 52 52 52 52 53
59 61 58 57 56 54 53 54 54 59 61 57 50 43 36 29 21 16 12 11 11 14 19 23 25 28 30 29 26 22 18 17 19 27 35 53 51 51 53 54 58 57 56
65 65 63 59 58 58 59 59 61 63 61 57 49 39 32 26 20 16 12 9 11 15 17 21 24 25 27 27 27 26 25 24 25 30 42 52 56 56 49 49 53 55 58
Wind_Direction_850mb
186 168 154 145 137 128 122 115 104 95 89 86 82 74 61 57 54 53 51 51 55 66 71 74 74 76 76 79 78 73 69 67 62 60 52 53 62 69 66 64 65 67 60
192 171 157 149 146 141 134 126 112 102 94 95 86 78 60 56 52 52 47 47 49 57 65 70 73 76 77 79 78 77 82 74 54 55 46 43 56 59 56 58 61 66 65
170 169 165 153 151 148 144 137 125 116 109 100 103 81 57 55 54 44 36 35 41 52 65 67 66 69 72 77 81 87 95 87 70 61 39 58 56 58 58 49 51 55 57
164 173 170 157 149 149 148 145 135 127 113 111 105 81 62 59 52 41 38 38 38 44 59 63 60 61 68 73 79 86 99 98 85 68 54 39 34 33 43 47 37 35 34
171 164 172 165 152 142 157 154 144 133 118 114 105 83 67 65 49 40 38 38 40 46 59 59 54 50 52 62 78 93 109 111 97 72 162 337 12 3 23 21 23 22 28
157 130 163 164 152 161 164 158 139 113 126 119 104 95 100 69 45 37 33 35 37 43 48 47 44 40 43 53 72 94 129 131 118 103 61 39 8 4 24 24 24 21 13
141 160 174 179 172 172 172 160 142 115 85 105 103 112 106 69 52 40 34 31 32 36 41 42 42 40 42 46 61 97 149 145 293 305 339 0 7 11 18 16 13 13 10
149 169 193 194 190 183 177 169 164 145 222 108 115 127 106 71 42 31 30 24 18 20 30 38 43 45 47 52 63 76 58 20 357 18 24 16 12 9 12 9 7 3 359
176 169 174 190 198 197 196 186 180 160 209 208 159 144 116 75 49 33 37 28 17 17 31 35 38 42 44 46 49 52 43 17 14 16 11 12 7 3 5 4 359 355 354
187 195 184 182 199 208 204 193 189 186 201 223 214 188 189 111 107 68 41 35 21 19 49 42 35 33 35 37 40 39 26 13 14 11 6 5 1 358 357 357 354 355 354
187 191 194 192 190 204 202 201 195 206 216 228 233 238 245 224 47 44 61 38 39 36 35 40 36 37 38 34 30 20 11 2 2 2 360 359 355 353 351 350 350 347 346
195 198 201 210 219 212 204 191 193 210 212 212 217 229 223 190 183 161 91 55 37 18 23 15 24 36 41 40 38 33 25 12 1 358 355 353 351 349 347 346 343 340 339
217 209 211 218 222 215 211 203 196 206 217 221 219 208 201 210 194 161 166 276 87 20 346 354 18 33 36 34 35 36 36 31 20 9 358 351 348 347 347 345 342 338 333
221 220 220 223 225 220 215 196 200 204 207 206 205 203 190 190 184 192 211 206 297 299 342 349 6 23 31 20 27 25 27 25 25 20 11 359 349 343 339 336 336 337 333
219 219 216 213 207 205 201 193 192 202 209 208 192 182 184 191 189 195 180 217 252 319 334 341 359 357 7 3 7 12 10 10 10 11 11 2 351 345 340 334 328 323 318
229 232 235 227 216 205 194 189 187 192 203 200 185 183 187 193 204 208 196 202 273 262 294 345 334 323 348 335 332 342 351 353 352 351 354 356 352 346 341 334 328 320 312
240 241 238 227 215 207 195 183 186 185 189 185 185 189 194 195 195 197 200 223 210 225 270 275 277 253 283 254 314 331 342 345 348 338 334 339 342 339 335 329 327 322 313
240 237 233 217 204 192 185 182 185 187 184 182 188 190 179 180 188 194 202 206 193 199 195 226 291 334 314 294 330 341 343 337 338 342 341 343 345 350 353 351 349 344 336
247 245 228 201 190 181 182 182 186 186 185 180 181 184 175 172 179 184 177 170 159 174 205 233 305 348 23 25 35 33 19 33 30 3 350 355 357 356 356 352 348 343 336
230 225 208 175 168 172 176 179 181 185 184 180 182 185 172 169 166 171 166 164 158 156 167 148 79 40 30 41 42 55 58 57 54 23 4 1 2 1 1 358 354 355 354
210 200 170 166 168 174 177 180 179 178 175 179 179 173 170 166 148 138 130 127 125 127 104 82 50 42 41 48 57 69 72 48 17 2 348 349 346 347 343 344 345 346 342
201 178 169 168 169 170 175 180 180 179 174 177 171 163 151 144 138 140 135 127 109 85 77 54 29 16 18 22 30 62 134 214 21 310 315 328 337 337 336 341 340 339 337
185 179 173 171 174 175 177 178 177 176 170 166 160 154 146 144 136 131 125 114 99 75 53 43 35 26 31 27 26 38 26 359 331 255 288 322 329 335 337 339 341 340 336
183 183 179 179 180 180 179 182 186 181 173 160 157 151 144 142 142 139 131 110 84 60 50 38 33 28 24 28 26 26 11 356 346 316 316 328 335 339 342 345 342 343 338
190 187 187 185 184 183 182 186 185 175 166 159 155 153 150 146 144 138 119 93 72 51 38 32 24 17 12 9 10 18 10 358 343 331 325 333 331 338 342 343 344 344 341
192 191 189 188 188 186 185 181 178 176 169 163 158 157 152 152 145 129 110 83 55 41 28 18 15 11 13 12 8 3 358 354 347 339 331 330 332 336 338 341 340 339 338